Список аэропортов
Фактическая погода:

23 февраля, 17:30
Температура: -15°C (-22.7*)
Ветер: западный 4 м/с
Давление: *766 мм
Без существ. явл.
Время (МСК)Темп. СВетерВлажностьДавлениеОблачностьОсадки
15:00-10З, 5 м/с70%1023 гПас прояснениями
16:00-10З, 4 м/с70%1024 гПамалооблачно
17:00-11ЮЗ, 3 м/с75%1024 гПамалооблачно
18:00-12ЮЗ, 3 м/с78%1025 гПаясно
19:00-14ЮЗ, 3 м/с80%1025 гПаясно
20:00-15ЮЗ, 2 м/с82%1025 гПаоблачно
21:00-16ЮЗ, 2 м/с82%1025 гПаясно
22:00-18ЮЗ, 2 м/с82%1025 гПаясно
23:00-19Ю, 2 м/с82%1025 гПаясно
24 февраля
00:00-20Ю, 2 м/с82%1025 гПаоблачно
01:00-20Ю, 2 м/с82%1025 гПаоблачно
02:00-21Ю, 2 м/с81%1025 гПаоблачно
03:00-21Ю, 2 м/с82%1025 гПаоблачно
04:00-21Ю, 2 м/с81%1025 гПаоблачно
05:00-20ЮВ, 3 м/с80%1024 гПаоблачно
06:00-20ЮВ, 2 м/с78%1024 гПаоблачно
07:00-18ЮВ, 2 м/с77%1023 гПаоблачно
08:00-17ЮВ, 2 м/с76%1023 гПаоблачно
09:00-16Ю, 2 м/с74%1022 гПаоблачно
10:00-13Ю, 3 м/с72%1022 гПаоблачно
11:00-12Ю, 3 м/с76%1022 гПаоблачно
12:00-10Ю, 4 м/с80%1021 гПаоблачносл. снег
13:00-9Ю, 4 м/с81%1021 гПаоблачносл. снег
14:00-8Ю, 4 м/с82%1021 гПаоблачно
15:00-7ЮЗ, 5 м/с83%1020 гПаоблачно
16:00-7ЮЗ, 5 м/с82%1019 гПаоблачно
17:00-7ЮЗ, 4 м/с82%1019 гПаоблачно
18:00-7ЮЗ, 3 м/с83%1020 гПаоблачно
19:00-7ЮЗ, 3 м/с84%1019 гПаоблачно
20:00-7ЮЗ, 4 м/с84%1019 гПаоблачно
21:00-7ЮЗ, 4 м/с84%1018 гПаоблачно
22:00-8ЮЗ, 4 м/с85%1017 гПаоблачно
23:00-8ЮЗ, 4 м/с86%1017 гПаоблачно
25 февраля
00:00-8Ю, 4 м/с86%1016 гПаоблачносл. снег
01:00-8Ю, 3 м/с86%1016 гПаоблачно
02:00-8Ю, 4 м/с87%1015 гПаоблачно
03:00-8Ю, 4 м/с88%1014 гПаоблачно
04:00-8Ю, 5 м/с88%1013 гПаоблачно
05:00-9Ю, 5 м/с89%1012 гПаоблачно
06:00-9Ю, 5 м/с89%1012 гПаоблачно
07:00-9ЮВ, 6 м/с90%1010 гПаоблачно
08:00-9ЮВ, 6 м/с90%1009 гПаоблачно
09:00-8ЮВ, 6 м/с90%1008 гПаоблачносл. снег
10:00-7ЮВ, 6 м/с90%1008 гПаоблачносл. снег
11:00-6ЮВ, 6 м/с90%1006 гПаоблачносл. снег
12:00-6ЮВ, 6 м/с90%1005 гПаоблачноснег
13:00-5ЮВ, 6 м/с90%1004 гПаоблачноснег
14:00-4ЮВ, 6 м/с89%1003 гПаоблачноснег
15:00-4ЮВ, 6 м/с90%1002 гПаоблачно